| time (UTC) | temp F | wind direction | speed MPH | gust MPH | rain 1hr in | rain 24hr in | rain mn in | humidity % | barometer mb |
| 20260504173018 | 80 | 190 | 2.0 | 11.0 | 0.00 | 0.00 | 0.00 | 70 | 1013.7 |
| 20260504171512 | 80 | 233 | 2.0 | 10.0 | 0.00 | 0.00 | 0.00 | 68 | 1013.9 |
| 20260504150110 | 75 | 188 | 3.0 | 8.0 | 0.00 | 0.00 | 0.00 | 73 | 1014.7 |
| 20260504081503 | 59 | 210 | 0.0 | 0.0 | 0.00 | 0.00 | 0.00 | 84 | 1014.9 |
| 20260504080116 | 59 | 210 | 0.0 | 0.0 | 0.00 | 0.00 | 0.00 | 83 | 1015.3 |
| 20260504044534 | 61 | 210 | 0.0 | 1.0 | 0.00 | 0.00 | 0.00 | 80 | 1017.1 |
| 20260504043036 | 61 | 210 | 0.0 | 0.0 | 0.00 | 0.00 | 0.00 | 80 | 1017.2 |
| 20260504041535 | 62 | 210 | 0.0 | 0.0 | 0.00 | 0.00 | 0.00 | 78 | 1017.1 |
| 20260504040057 | 63 | 210 | 0.0 | 1.0 | 0.00 | 0.00 | 0.00 | 77 | 1017.1 |
| 20260504034533 | 63 | 210 | 0.0 | 0.0 | 0.00 | 0.00 | 0.00 | 76 | 1017.2 |
| 20260504033035 | 64 | 210 | 0.0 | 0.0 | 0.00 | 0.00 | 0.00 | 75 | 1017.2 |
| 20260504031535 | 64 | 210 | 0.0 | 1.0 | 0.00 | 0.00 | 0.00 | 75 | 1017.1 |
| 20260504030031 | 65 | 210 | 0.0 | 1.0 | 0.00 | 0.00 | 0.00 | 74 | 1016.9 |
| 20260504024530 | 64 | 210 | 0.0 | 0.0 | 0.00 | 0.00 | 0.00 | 74 | 1017.1 |
| 20260504023030 | 65 | 210 | 0.0 | 0.0 | 0.00 | 0.00 | 0.00 | 73 | 1017.0 |
| 20260504021530 | 67 | 210 | 0.0 | 2.0 | 0.00 | 0.00 | 0.00 | 72 | 1017.0 |
| 20260504020029 | 67 | 213 | 0.0 | 1.0 | 0.00 | 0.00 | 0.00 | 70 | 1017.0 |
| 20260504014529 | 68 | 201 | 0.0 | 2.0 | 0.00 | 0.00 | 0.00 | 69 | 1017.0 |
| 20260504013028 | 69 | 174 | 0.0 | 3.0 | 0.00 | 0.00 | 0.00 | 67 | 1017.1 |
| 20260504011527 | 69 | 197 | 1.0 | 2.0 | 0.00 | 0.00 | 0.00 | 65 | 1016.9 |
| 20260504010029 | 70 | 205 | 1.0 | 4.0 | 0.00 | 0.00 | 0.00 | 64 | 1017.0 |
| 20260504004539 | 71 | 194 | 1.0 | 4.0 | 0.00 | 0.00 | 0.00 | 61 | 1016.8 |
| 20260504003025 | 72 | 196 | 1.0 | 4.0 | 0.00 | 0.00 | 0.00 | 58 | 1016.7 |
| 20260504001524 | 74 | 210 | 1.0 | 6.0 | 0.00 | 0.00 | 0.00 | 56 | 1016.8 |
| 20260504000024 | 76 | 221 | 2.0 | 7.0 | 0.00 | 0.00 | 0.00 | 53 | 1016.8 |
| 20260503234522 | 76 | 210 | 1.0 | 6.0 | 0.00 | 0.00 | 0.00 | 52 | 1017.0 |
| 20260503233022 | 77 | 200 | 2.0 | 7.0 | 0.00 | 0.00 | 0.00 | 51 | 1017.2 |
| 20260503231520 | 78 | 214 | 2.0 | 8.0 | 0.00 | 0.00 | 0.00 | 50 | 1017.1 |
| 20260503230019 | 78 | 210 | 2.0 | 6.0 | 0.00 | 0.00 | 0.00 | 50 | 1017.3 |
| 20260503224516 | 78 | 171 | 2.0 | 6.0 | 0.00 | 0.00 | 0.00 | 49 | 1017.3 |
| 20260503223015 | 78 | 203 | 2.0 | 7.0 | 0.00 | 0.00 | 0.00 | 49 | 1017.7 |
| 20260503221514 | 78 | 211 | 3.0 | 8.0 | 0.00 | 0.00 | 0.00 | 48 | 1017.5 |
| 20260503220012 | 79 | 206 | 1.0 | 5.0 | 0.00 | 0.00 | 0.00 | 49 | 1017.6 |
| 20260503214509 | 80 | 224 | 2.0 | 7.0 | 0.00 | 0.00 | 0.00 | 47 | 1017.8 |
| 20260503213007 | 81 | 215 | 1.0 | 6.0 | 0.00 | 0.00 | 0.00 | 46 | 1018.0 |
| 20260503211505 | 81 | 49 | 0.0 | 9.0 | 0.00 | 0.00 | 0.00 | 52 | 1018.2 |
| 20260503210005 | 81 | 165 | 0.0 | 4.0 | 0.00 | 0.00 | 0.00 | 46 | 1018.4 |
| 20260503204502 | 81 | 232 | 1.0 | 7.0 | 0.00 | 0.00 | 0.00 | 46 | 1018.5 |
| 20260503203059 | 81 | 203 | 0.0 | 4.0 | 0.00 | 0.00 | 0.00 | 50 | 1018.8 |
| 20260503201558 | 81 | 233 | 0.0 | 4.0 | 0.00 | 0.00 | 0.00 | 52 | 1019.0 |
| 20260503200101 | 79 | 34 | 2.0 | 6.0 | 0.00 | 0.00 | 0.00 | 53 | 1019.2 |
| 20260503194557 | 80 | 31 | 1.0 | 5.0 | 0.00 | 0.00 | 0.00 | 47 | 1019.4 |
| 20260503193110 | 82 | 37 | 1.0 | 4.0 | 0.00 | 0.00 | 0.00 | 49 | 1019.6 |
| 20260503191604 | 81 | 35 | 0.0 | 3.0 | 0.00 | 0.00 | 0.00 | 52 | 1019.9 |
| 20260503190052 | 81 | 201 | 0.0 | 6.0 | 0.00 | 0.00 | 0.00 | 46 | 1020.0 |
| 20260503184550 | 80 | 29 | 0.0 | 4.0 | 0.00 | 0.00 | 0.00 | 47 | 1020.2 |
| 20260503183107 | 80 | 208 | 2.0 | 6.0 | 0.00 | 0.00 | 0.00 | 47 | 1020.5 |
| 20260503181617 | 80 | 182 | 0.0 | 3.0 | 0.00 | 0.00 | 0.00 | 44 | 1020.8 |
| 20260503180048 | 80 | 159 | 0.0 | 4.0 | 0.00 | 0.00 | 0.00 | 45 | 1020.9 |
| 20260503174546 | 79 | 139 | 1.0 | 4.0 | 0.00 | 0.00 | 0.00 | 51 | 1021.0 |